Regional Weather Roundup
Issued by NWS

Home | Current Version | Previous Version | Text Only | Print | Product List | Glossary Off
Versions: 1 2 3 4 5 6 7 8 9 10 11 12 13 14 15 16 17 18 19 20 21 22 23 24 25 26 27 28 29 30 31 32 33 34 35 36 37 38 39 40 41 42 43 44 45 46 47 48 49 50

000
ASUS43 KMKX 281211
RWRWI

WISCONSIN REGIONAL WEATHER ROUNDUP
NATIONAL WEATHER SERVICE MILWAUKEE/SULLIVAN WI
700 AM CDT TUE JUL 28 2015

NOTE: "FAIR" INDICATES FEW OR NO CLOUDS BELOW 12,000 FEET WITH NO
SIGNIFICANT WEATHER AND/OR OBSTRUCTIONS TO VISIBILITY.

WIZ001-002-006>008-014>016-023>028-281300-
NORTHWEST WISCONSIN

CITY           SKY/WX    TMP DP  RH WIND       PRES   REMARKS
SUPERIOR ARPT  CLOUDY    69  67  91 CALM      29.84R
6HR MIN TEMP:  64; 6HR MAX TEMP:  70;

ASHLAND        PTSUNNY   70  65  84 SE6       29.88F
6HR MIN TEMP:  59; 6HR MAX TEMP:  70;

HAYWARD        CLOUDY    71  64  78 S10       29.91R
6HR MIN TEMP:  69; 6HR MAX TEMP:  73;

SIREN          CLOUDY    73  68  85 S10       29.86R
6HR MIN TEMP:  72; 6HR MAX TEMP:  73;

CUMBERLAND     CLOUDY    70  66  88 SE9G17    29.88R
RICE LAKE      CLOUDY    70  65  85 SE12      29.90S
6HR MIN TEMP:  69; 6HR MAX TEMP:  73;

CHETEK         CLOUDY    69  66  89 SE10G17   29.90S
6HR MIN TEMP:  69; 6HR MAX TEMP:  71;

LADYSMITH      PTSUNNY   70  64  81 SE8       29.95R
6HR MIN TEMP:  68; 6HR MAX TEMP:  71;

EAU CLAIRE     CLOUDY    72  65  78 SE12      29.88F
6HR MIN TEMP:  71; 6HR MAX TEMP:  73;

MENOMONIE      CLOUDY    71  68  91 SE10      29.87F
6HR MIN TEMP:  69; 6HR MAX TEMP:  71;

NEW RICHMOND   CLOUDY    72  70  92 S12G21    29.84S
6HR MIN TEMP:  70; 6HR MAX TEMP:  73;

OSCEOLA        LGT RAIN  73  73 100 S14G22    29.88R
6HR MIN TEMP:  72; 6HR MAX TEMP:  74;

$$

WIZ003>005-009-010-017-018-281300-
NORTH CENTRAL WISCONSIN

CITY           SKY/WX    TMP DP  RH WIND       PRES   REMARKS
MANITOWISH WTR MOSUNNY   68  63  86 SE6       29.96F
6HR MIN TEMP:  64; 6HR MAX TEMP:  68;

ARBOR VITAE    MOSUNNY   72  64  76 S8        29.97F
6HR MIN TEMP:  67; 6HR MAX TEMP:  72;

WOODRUFF       MOSUNNY   72  64  76 S8        29.97F
6HR MIN TEMP:  67; 6HR MAX TEMP:  72;

RHINELANDER    SUNNY     66  60  81 SE5       30.00R
6HR MIN TEMP:  59; 6HR MAX TEMP:  69;

EAGLE RIVER    SUNNY     66  61  84 S5        29.99F
6HR MIN TEMP:  58; 6HR MAX TEMP:  66;

LAND O LAKES   SUNNY     65  64  97 S5        30.00F
6HR MIN TEMP:  55; 6HR MAX TEMP:  65;

PHILLIPS       CLOUDY    69  62  79 SE7       29.94S
6HR MIN TEMP:  67; 6HR MAX TEMP:  69;

TOMAHAWK       MOSUNNY   66  60  83 CALM      29.98S
6HR MIN TEMP:  61; 6HR MAX TEMP:  66;

MEDFORD        MOSUNNY   65  62  89 S8        29.97R
6HR MIN TEMP:  63; 6HR MAX TEMP:  67;

MERRILL        NOT AVBL
$$

WIZ029-030-035-036-043>047-281300-
CENTRAL WISCONSIN

CITY           SKY/WX    TMP DP  RH WIND       PRES   REMARKS
WAUSAU         SUNNY     68  61  78 S9        29.97S
6HR MIN TEMP:  64; 6HR MAX TEMP:  68;

MOSINEE        SUNNY     66  63  88 SE8       29.99S
MARSHFIELD     SUNNY     68  61  78 S10       29.97R
6HR MIN TEMP:  67; 6HR MAX TEMP:  71;

STEVENS POINT  SUNNY     67  60  79 S6        29.99S
6HR MIN TEMP:  60; 6HR MAX TEMP:  67;

WAUPACA        SUNNY     65  64  98 CALM      29.99S
6HR MIN TEMP:  61; 6HR MAX TEMP:  66;

WAUTOMA        SUNNY     65  62  90 CALM      29.99S
6HR MIN TEMP:  59; 6HR MAX TEMP:  65;

WISC RAPIDS    SUNNY     69  60  73 S6        29.99R
6HR MIN TEMP:  67; 6HR MAX TEMP:  70;

CAMP DOUGLAS   PTSUNNY   68  68 100 SE3       29.97R
$$

WIZ011>013-019>022-031-037>040-048>050-281300-
NORTHEAST WISCONSIN

CITY           SKY/WX    TMP DP  RH WIND       PRES   REMARKS
ANTIGO         SUNNY     65  62  93 SE7       30.01F
SHAWANO        SUNNY     69  62  77 CALM      30.00S
6HR MIN TEMP:  65; 6HR MAX TEMP:  72;

OCONTO         SUNNY     62  62 100 CALM      30.00S
6HR MIN TEMP:  57; 6HR MAX TEMP:  62;

STURGEON BAY   SUNNY     70  61  73 SE5       30.04R
6HR MIN TEMP:  64; 6HR MAX TEMP:  70;

GREEN BAY      SUNNY     66  63  90 CALM      30.00R
6HR MIN TEMP:  59; 6HR MAX TEMP:  66;

MANITOWOC      SUNNY     66  63  90 MISG      30.02R
6HR MIN TEMP:  61; 6HR MAX TEMP:  66;

APPLETON       MOSUNNY   70  63  78 VRB5      30.00R
CLINTONVILLE   SUNNY     63  61  94 CALM      29.99S FOG
OSHKOSH        SUNNY     67  62  84 S7        29.99S
6HR MIN TEMP:  59; 6HR MAX TEMP:  67;

$$

WIZ032>034-041-042-053>061-281300-
SOUTHWEST WISCONSIN

CITY           SKY/WX    TMP DP  RH WIND       PRES   REMARKS
LA CROSSE      PTSUNNY   75  64  68 S12       29.93R
6HR MIN TEMP:  72; 6HR MAX TEMP:  75;

SPARTA         MOSUNNY   73  61  65 CALM      29.96R
6HR MIN TEMP:  68; 6HR MAX TEMP:  73;

VIROQUA        PTSUNNY   69  64  84 S8        29.98S
6HR MIN TEMP:  67; 6HR MAX TEMP:  71;

BOSCOBEL       SUNNY     72  65  78 CALM      29.96R
6HR MIN TEMP:  67; 6HR MAX TEMP:  72;

PRAIRIE DU CHI MOSUNNY   71  64  80 E7        29.94F
6HR MIN TEMP:  69; 6HR MAX TEMP:  72;

PLATTEVILLE    SUNNY     68  65  90 E7        29.98S
6HR MIN TEMP:  66; 6HR MAX TEMP:  71;

$$

WIZ056-057-062-063-064-067-068-281300-
SOUTH CENTRAL WISCONSIN

CITY           SKY/WX    TMP DP  RH WIND       PRES   REMARKS
REEDSBURG      SUNNY     68  63  84 SE6       29.98S
6HR MIN TEMP:  65; 6HR MAX TEMP:  70;

BARABOO/DELLS  SUNNY     70  62  75 S5        29.99R
6HR MIN TEMP:  66; 6HR MAX TEMP:  71;

LONE ROCK      SUNNY     69  64  84 E5        29.99R
6HR MIN TEMP:  65; 6HR MAX TEMP:  69;

MINERAL POINT  SUNNY     70  64  83 SE7       29.99S
MADISON        MOSUNNY   70  62  76 CALM      30.00R
6HR MIN TEMP:  67; 6HR MAX TEMP:  71;

MIDDLETON      SUNNY     69  64  85 CALM      30.00S
6HR MIN TEMP:  64; 6HR MAX TEMP:  71;

WATERTOWN      SUNNY     67  67 100 SE3       30.00R
6HR MIN TEMP:  61; 6HR MAX TEMP:  67;

MONROE         SUNNY     68  63  83 SE6       30.00R
JANESVILLE     SUNNY     68  64  88 SE3       29.99R
$$

WIZ051-052-058>065-066-070>072-281300-
SOUTHEAST WISCONSIN

CITY           SKY/WX    TMP DP  RH WIND       PRES   REMARKS
MILWAUKEE      MOSUNNY   71  66  84 SE7       30.00S
6HR MIN TEMP:  66; 6HR MAX TEMP:  71;

WAUKESHA       SUNNY     63  61  94 CALM      30.01S
MILWAUKEE/TIMM SUNNY     64  61  88 CALM      30.01S
RACINE         SUNNY     69  65  86 CALM      30.02S
6HR MIN TEMP:  64; 6HR MAX TEMP:  71;

BURLINGTON     SUNNY     59  59  99 CALM      30.00S FOG
6HR MIN TEMP:  56; 6HR MAX TEMP:  61;

KENOSHA        SUNNY     66  65  96 CALM      30.01S FOG
6HR MIN TEMP:  59; 6HR MAX TEMP:  66;

FOND DU LAC    SUNNY     68  63  84 CALM      30.01R
6HR MIN TEMP:  62; 6HR MAX TEMP:  68;

SHEBOYGAN      SUNNY     63  63 100 CALM      30.01R FOG
6HR MIN TEMP:  58; 6HR MAX TEMP:  63;

WEST BEND      SUNNY     61  59  94 CALM      30.02R
JUNEAU           N/A     67  62  84 SE5       30.02R
6HR MIN TEMP:  63; 6HR MAX TEMP:  67;

$$

LSZ147-162-281300-
LAKE SUPERIOR

STATION/POSITION TIME  TEMP    WIND        PRES    WAVE
                       AIR SEA DIR/SP/G            HT/PER
                 (UTC) (F)     (DEG/KT/KT) (MB)    (FT/S)
W MID LAKE BUOY  1150   65 62  140/ 10/ 12 1012.0F   1
DEVILS ISLAND    1200   72     150/ 10/ 12 1011.4F
PORT WING        1100   73     150/  3/  8 1011.2S
SAXON HARBOR     1100   72                 1011.9S
$$

LMZ867-665-643>646-281300-
LAKE MICHIGAN

STATION/POSITION TIME  TEMP    WIND        PRES    WAVE
                       AIR SEA DIR/SP/G            HT/PER
                 (UTC) (F)     (DEG/KT/KT) (MB)    (FT/S)
CHAMBERS ISLAND  1100   69        CALM     1015.9S


USA.gov is the U.S. government's official web portal to all federal, state and local government web resources and services.